This demonstration page uses our WeatherBlox Daily Observations layout. Learn more.

Left ArrowRight Arrow

39.01783, -85.05884

Hourly Observations for March 20, 2017

Temp ( °F °C ) Dew Point ( °F °C ) Humidity (%) Winds ( mph kmh ) Pressure ( in mb ) Visibility ( mi km ) Precip ( " mm )
12:52 am 00:52 Clear 38 3.3 30 -1.1 73 73 SSE 6 9 30.24 1024 10 16 0.00 0.00
1:52 am 01:52 Clear 35 1.7 29 -1.7 78 78 SE 6 9 30.23 1024 10 16 0.00 0.00
2:52 am 02:52 Clear 36 2.2 29 -1.7 76 76 SSE 7 11 30.21 1023 10 16 0.00 0.00
3:52 am 03:52 Clear 35 1.7 29 -1.7 78 78 SSE 8 13 30.18 1022 10 16 0.00 0.00
4:52 am 04:52 Partly Cloudy 35 1.7 30 -1.1 82 82 S 9 15 30.14 1021 10 16 0.00 0.00
5:52 am 05:52 Partly Cloudy 35 1.7 30 -1.1 82 82 S 9 15 30.14 1021 10 16 0.00 0.00
6:52 am 06:52 Cloudy 39 3.9 31 -0.6 73 73 SE 10 17 30.13 1020 10 16 0.00 0.00
7:52 am 07:52 Cloudy with Nearby Thunderstorms 40 4.4 31 -0.6 70 70 SE 8 13 30.15 1021 10 16 0.00 0.00
8:00 am 08:00 Cloudy with Thunderstorms 40 4.4 31 -0.6 70 70 SSE 9 15 30.18 1022 10 16 0.00 0.00
8:26 am 08:26 Windy with Storms Likely 39 3.9 33 0.6 79 79 NNE 23 37 30.27 1025 5 8 0.03 0.76
8:29 am 08:29 Cloudy with Thunderstorms 38 3.3 33 0.6 83 83 NE 15 24 30.24 1024 3 4 0.09 2.29
8:33 am 08:33 Cloudy with Thunderstorms 38 3.3 33 0.6 83 83 NNE 16 26 30.27 1025 6 10 0.13 3.30
8:52 am 08:52 Cloudy with Thunderstorms 39 3.9 34 1.1 82 82 NNE 15 24 30.25 1024 10 16 0.13 3.30
9:27 am 09:27 Cloudy with Thunderstorms 38 3.3 35 1.7 89 89 NE 3 6 30.27 1025 4 6 0.06 1.52
9:52 am 09:52 Cloudy with Light Rain 38 3.3 36 2.2 93 93 E 9 15 30.23 1024 7 11 0.17 4.32
10:07 am 10:07 Cloudy with Nearby Thunderstorms 38 3.3 36 2.2 93 93 SE 6 9 30.24 1024 6 10 0.00 0.03
10:08 am 10:08 Cloudy with Thunderstorms 38 3.3 36 2.2 93 93 ESE 6 9 30.24 1024 6 10 0.00 0.03
10:32 am 10:32 Cloudy with Light Rain 39 4 37 3 93 93 SE 5 7 30.21 1023 6 10 0.00 0.00
10:52 am 10:52 Cloudy with Thunderstorms 39 3.9 38 3.3 96 96 Calm 30.23 1024 4 6 0.11 2.79
11:12 am 11:12 Cloudy with Thunderstorms 39 4 37 3 93 93 SSE 6 9 30.24 1024 3 5 0.00 0.00
11:23 am 11:23 Cloudy with Rain 39 3.9 38 3.3 96 96 S 13 20 30.21 1023 3 5 0.11 2.79
11:37 am 11:37 Cloudy with Light Rain 40 4.4 38 3.3 93 93 S 15 24 30.18 1022 6 10 0.15 3.81
11:52 am 11:52 Cloudy with Light Rain 41 5 38 3.3 89 89 S 28 44 30.04 1017 7 11 0.16 4.06
12:52 pm 12:52 Cloudy 46 7.8 41 5 83 83 SE 12 19 30.04 1017 10 16 0.02 0.51
1:52 pm 13:52 Cloudy 47 8.3 42 5.6 83 83 W 3 6 30.05 1018 10 16 0.00 0.00
2:52 pm 14:52 Mostly Cloudy 52 11.1 45 7.2 77 77 S 9 15 29.98 1015 10 16 0.00 0.00
3:52 pm 15:52 Mostly Cloudy 57 13.9 44 6.7 62 62 S 15 24 29.94 1014 10 16 0.00 0.00
4:52 pm 16:52 Cloudy 56 13.3 43 6.1 62 62 S 8 13 29.94 1014 10 16 0.00 0.00
5:52 pm 17:52 Cloudy 52 11.1 43 6.1 72 72 NE 18 30 29.98 1015 10 16 0.00 0.00
6:17 pm 18:17 Cloudy with Nearby Thunderstorms 51 10.6 42 5.6 71 71 NE 9 15 29.97 1015 10 16 0.00 0.00
6:32 pm 18:32 Cloudy with Thunderstorms 51 10.6 42 5.6 71 71 ESE 12 19 29.97 1015 10 16 0.00 0.00
6:52 pm 18:52 Cloudy with Thunderstorms 50 10 44 6.7 80 80 SSE 10 17 29.96 1015 10 16 0.00 0.03
7:09 pm 19:09 Cloudy with Nearby Thunderstorms 50 10 45 7.2 83 83 S 7 11 29.94 1014 10 16 0.00 0.00
7:18 pm 19:18 Cloudy 52 11 45 7 77 77 SSE 7 11 29.94 1014 10 16 0.00 0.00
7:52 pm 19:52 Cloudy 51 10.6 45 7.2 80 80 ESE 6 9 29.93 1014 10 16 0.00 0.00
8:52 pm 20:52 Cloudy 50 10 47 8.3 89 89 NNE 8 13 29.96 1015 10 16 0.00 0.03
9:52 pm 21:52 Cloudy 49 9.4 47 8.3 93 93 NE 7 11 29.98 1015 8 13 0.00 0.00
10:52 pm 22:52 Cloudy 49 9.4 47 8.3 93 93 NNE 6 9 30.00 1016 8 13 0.00 0.00
11:52 pm 23:52 Cloudy with Mist and Fog 48 8.9 47 8.3 96 96 N 6 9 30.00 1016 6 10 0.01 0.25

Powered by AerisWeather